Погода в Новом Устье

Россия / Хабаровский край     59°19′43″N   143°03′23″E
темп.,
°C
ветер,
м/с
пор.,
м/с
влажн.,
%
обл.,
%
осадки,
мм/ч
давл.,
гПа
погр.,
м
23 января, вс
вс2301:00−25с46865 0.0 101365
04:00−26с35895 0.0 101356
07:00−26с349011 0.0 101258
10:00−25с368760 0.0 101275
13:00−21ссз35838 0.0 1011105
16:00−23сз22925 0.0 101118
19:00−25с45875 0.0 101160
22:00−24с47821 0.0 101188
24 января, пн
пн2401:00−25с57831 0.0 101189
04:00−26с47841 0.0 101285
07:00−26с47864 0.0 101289
10:00−26с47855 0.0 101398
13:00−22с36816 0.0 1014133
16:00−23ссз23898 0.0 101532
19:00−26с22916 0.0 101623
22:00−27с34915 0.0 101654
25 января, вт
вт2501:00−27с46895 0.0 101776
04:00−28с46904 0.0 101774
07:00−29с35925 0.0 101771
10:00−29с35925 0.0 101777
13:00−25ссз24865 0.0 1017128
16:00−24ссз2288100 0.0 101766
19:00−23сз2285100 0.0 101794
22:00−23с2287100 0.0 101788
26 января, ср
ср2601:00−24ссз238899 0.0 101763
04:00−23с349198 0.0 1017125
07:00−24с459291 0.0 1018120
10:00−25с478884 0.0 1019137
13:00−22с467998 0.0 1019183
16:00−22с358288 0.0 1019152
19:00−25с348798 0.0 102065
22:00−27с478746 0.0 102189
27 января, чт
чт2701:00−29с588753 0.0 1021104
04:00−29с598710 0.0 1020112
07:00−30с59885 0.0 1020117
10:00−29с610865 0.0 1019135
13:00−25с611815 0.0 1016200
16:00−25ссз510791 0.0 1014141
19:00−26ссз612785 0.0 1011150
22:00−25с81874100 0.0 1008235